Time,TemperatureF,DewpointF,PressureIn,WindDirection,WindDirectionDegrees,WindSpeedMPH,WindSpeedGustMPH,Humidity,HourlyPrecipIn,Conditions,Clouds,dailyrainin,SolarRadiationWatts/m^2,SoftwareType,DateUTC
2013-02-06 00:01:00,43.0,41.0,-100.00,SW,234,4.0,7.0,89,-99.99,,,0.01,0.000000,,2013-02-06 08:01:00,
2013-02-06 00:11:00,43.0,41.0,-100.00,SW,234,4.0,7.0,89,-99.99,,,0.01,0.000000,,2013-02-06 08:11:00,
2013-02-06 00:41:00,43.0,41.0,-100.00,SSW,207,6.0,13.0,90,-99.99,,,0.01,0.000000,,2013-02-06 08:41:00,
2013-02-06 00:53:00,43.0,41.0,-100.00,SSW,207,6.0,13.0,90,-99.99,,,0.01,0.000000,,2013-02-06 08:53:00,
2013-02-06 01:01:00,43.0,41.0,-100.00,SSW,207,6.0,13.0,90,-99.99,,,0.01,0.000000,,2013-02-06 09:01:00,
2013-02-06 01:11:00,43.0,41.0,-100.00,SSW,207,6.0,13.0,90,-99.99,,,0.01,0.000000,,2013-02-06 09:11:00,
2013-02-06 01:41:00,43.0,41.0,-100.00,SW,215,6.0,13.0,91,-99.99,,,0.01,0.000000,,2013-02-06 09:41:00,
2013-02-06 01:52:00,43.0,41.0,-100.00,SW,215,6.0,13.0,91,-99.99,,,0.01,0.000000,,2013-02-06 09:52:00,
2013-02-06 02:01:00,43.0,41.0,-100.00,SW,215,6.0,13.0,91,-99.99,,,0.01,0.000000,,2013-02-06 10:01:00,
2013-02-06 02:11:00,43.0,41.0,-100.00,SW,215,6.0,13.0,91,-99.99,,,0.01,0.000000,,2013-02-06 10:11:00,
2013-02-06 02:41:00,42.0,41.0,-100.00,ENE,71,2.0,4.0,96,-99.99,,,0.01,0.120000,,2013-02-06 10:41:00,
2013-02-06 02:52:00,42.0,41.0,-100.00,ENE,71,2.0,4.0,96,-99.99,,,0.01,0.120000,,2013-02-06 10:52:00,
2013-02-06 03:01:00,42.0,41.0,-100.00,ENE,71,2.0,4.0,96,-99.99,,,0.01,0.120000,,2013-02-06 11:01:00,
2013-02-06 03:11:00,42.0,41.0,-100.00,ENE,71,2.0,4.0,96,-99.99,,,0.01,0.120000,,2013-02-06 11:11:00,
2013-02-06 03:42:00,42.0,41.0,-100.00,NNW,341,1.0,2.0,95,-99.99,,,0.01,0.120000,,2013-02-06 11:42:00,
2013-02-06 03:53:00,42.0,41.0,-100.00,NNW,341,1.0,2.0,95,-99.99,,,0.01,0.120000,,2013-02-06 11:53:00,
2013-02-06 04:01:00,42.0,41.0,-100.00,NNW,341,1.0,2.0,95,-99.99,,,0.01,0.120000,,2013-02-06 12:01:00,
2013-02-06 04:12:00,42.0,41.0,-100.00,NNW,341,1.0,2.0,95,-99.99,,,0.01,0.120000,,2013-02-06 12:12:00,
2013-02-06 04:42:00,42.0,41.0,-100.00,SSE,166,1.0,3.0,96,-99.99,,,0.01,0.230000,,2013-02-06 12:42:00,
2013-02-06 04:52:00,42.0,41.0,-100.00,SSE,166,1.0,3.0,96,-99.99,,,0.01,0.230000,,2013-02-06 12:52:00,
2013-02-06 05:01:00,42.0,41.0,-100.00,SSE,166,1.0,3.0,96,-99.99,,,0.01,0.230000,,2013-02-06 13:01:00,
2013-02-06 05:11:00,42.0,41.0,-100.00,SSE,166,1.0,3.0,96,-99.99,,,0.01,0.230000,,2013-02-06 13:11:00,
2013-02-06 05:31:00,42.0,41.0,-100.00,SSW,193,2.0,4.0,95,-99.99,,,0.01,0.230000,,2013-02-06 13:31:00,
2013-02-06 05:42:00,42.0,41.0,-100.00,SSW,193,2.0,4.0,95,-99.99,,,0.01,0.230000,,2013-02-06 13:42:00,
2013-02-06 05:52:00,42.0,41.0,-100.00,SSW,193,2.0,4.0,95,-99.99,,,0.01,0.230000,,2013-02-06 13:52:00,
2013-02-06 06:01:00,42.0,41.0,-100.00,SSW,193,2.0,4.0,95,-99.99,,,0.01,0.230000,,2013-02-06 14:01:00,
2013-02-06 06:11:00,42.0,41.0,-100.00,SSW,193,2.0,4.0,95,-99.99,,,0.01,0.230000,,2013-02-06 14:11:00,
2013-02-06 06:31:00,43.0,41.0,-100.00,SSW,207,3.0,7.0,92,-99.99,,,0.01,0.120000,,2013-02-06 14:31:00,
2013-02-06 06:41:00,43.0,41.0,-100.00,SSW,207,3.0,7.0,92,-99.99,,,0.01,0.120000,,2013-02-06 14:41:00,
2013-02-06 06:52:00,43.0,41.0,-100.00,SSW,207,3.0,7.0,92,-99.99,,,0.01,0.120000,,2013-02-06 14:52:00,
2013-02-06 07:01:00,43.0,41.0,-100.00,SSW,207,3.0,7.0,92,-99.99,,,0.01,0.120000,,2013-02-06 15:01:00,
2013-02-06 07:11:00,43.0,41.0,-100.00,SSW,207,3.0,7.0,92,-99.99,,,0.01,0.120000,,2013-02-06 15:11:00,
2013-02-06 07:31:00,43.0,41.0,-100.00,SSW,204,4.0,7.0,92,-99.99,,,0.01,0.700000,,2013-02-06 15:31:00,
2013-02-06 07:41:00,43.0,41.0,-100.00,SSW,204,4.0,7.0,92,-99.99,,,0.01,0.700000,,2013-02-06 15:41:00,
2013-02-06 07:52:00,43.0,41.0,-100.00,SSW,204,4.0,7.0,92,-99.99,,,0.01,0.700000,,2013-02-06 15:52:00,
2013-02-06 08:01:00,43.0,41.0,-100.00,SSW,204,4.0,7.0,92,-99.99,,,0.01,0.700000,,2013-02-06 16:01:00,
2013-02-06 08:11:00,43.0,41.0,-100.00,SSW,204,4.0,7.0,92,-99.99,,,0.01,0.700000,,2013-02-06 16:11:00,
2013-02-06 08:32:00,43.0,41.0,-100.00,South,188,2.0,4.0,91,-99.99,,,0.01,49.860001,,2013-02-06 16:32:00,
2013-02-06 08:42:00,43.0,41.0,-100.00,South,188,2.0,4.0,91,-99.99,,,0.01,49.860001,,2013-02-06 16:42:00,
2013-02-06 08:52:00,43.0,41.0,-100.00,South,188,2.0,4.0,91,-99.99,,,0.01,49.860001,,2013-02-06 16:52:00,
2013-02-06 09:01:00,43.0,41.0,-100.00,South,188,2.0,4.0,91,-99.99,,,0.01,49.860001,,2013-02-06 17:01:00,
2013-02-06 09:11:00,43.0,41.0,-100.00,South,188,2.0,4.0,91,-99.99,,,0.01,49.860001,,2013-02-06 17:11:00,
2013-02-06 09:41:00,45.0,41.0,-100.00,South,187,6.0,12.0,86,-99.99,,,0.01,129.000000,,2013-02-06 17:41:00,
2013-02-06 09:52:00,45.0,41.0,-100.00,South,187,6.0,12.0,86,-99.99,,,0.01,129.000000,,2013-02-06 17:52:00,
2013-02-06 10:01:00,45.0,41.0,-100.00,South,187,6.0,12.0,86,-99.99,,,0.01,129.000000,,2013-02-06 18:01:00,
2013-02-06 10:11:00,45.0,41.0,-100.00,South,187,6.0,12.0,86,-99.99,,,0.01,129.000000,,2013-02-06 18:11:00,
2013-02-06 10:42:00,47.0,42.0,-100.00,South,179,5.0,9.0,83,-99.99,,,0.01,148.300003,,2013-02-06 18:42:00,
2013-02-06 10:52:00,47.0,42.0,-100.00,South,179,5.0,9.0,83,-99.99,,,0.01,148.300003,,2013-02-06 18:52:00,
2013-02-06 11:01:00,47.0,42.0,-100.00,South,179,5.0,9.0,83,-99.99,,,0.01,148.300003,,2013-02-06 19:01:00,
2013-02-06 11:11:00,47.0,42.0,-100.00,South,179,5.0,9.0,83,-99.99,,,0.01,148.300003,,2013-02-06 19:11:00,
2013-02-06 11:41:00,48.0,42.0,-100.00,SSW,196,8.0,15.0,78,-99.99,,,0.01,304.959991,,2013-02-06 19:41:00,
2013-02-06 11:52:00,48.0,42.0,-100.00,SSW,196,8.0,15.0,78,-99.99,,,0.01,304.959991,,2013-02-06 19:52:00,
2013-02-06 12:01:00,48.0,42.0,-100.00,SSW,196,8.0,15.0,78,-99.99,,,0.01,304.959991,,2013-02-06 20:01:00,
2013-02-06 12:11:00,48.0,42.0,-100.00,SSW,196,8.0,15.0,78,-99.99,,,0.01,304.959991,,2013-02-06 20:11:00,
2013-02-06 12:41:00,50.0,42.0,-100.00,South,189,10.0,18.0,73,-99.99,,,0.01,330.529999,,2013-02-06 20:41:00,
2013-02-06 12:52:00,50.0,42.0,-100.00,South,189,10.0,18.0,73,-99.99,,,0.01,330.529999,,2013-02-06 20:52:00,
2013-02-06 13:01:00,50.0,42.0,-100.00,South,189,10.0,18.0,73,-99.99,,,0.01,330.529999,,2013-02-06 21:01:00,
2013-02-06 13:11:00,50.0,42.0,-100.00,South,189,10.0,18.0,73,-99.99,,,0.01,330.529999,,2013-02-06 21:11:00,
2013-02-06 13:41:00,50.0,42.0,-100.00,SSW,195,10.0,20.0,72,-99.99,,,0.00,271.029999,,2013-02-06 21:41:00,
2013-02-06 13:52:00,50.0,42.0,-100.00,SSW,195,10.0,20.0,72,-99.99,,,0.00,271.029999,,2013-02-06 21:52:00,
2013-02-06 14:01:00,50.0,42.0,-100.00,SSW,195,10.0,20.0,72,-99.99,,,0.00,271.029999,,2013-02-06 22:01:00,
2013-02-06 14:11:00,50.0,42.0,-100.00,SSW,195,10.0,20.0,72,-99.99,,,0.00,271.029999,,2013-02-06 22:11:00,
2013-02-06 14:41:00,50.0,42.0,-100.00,SSW,212,7.0,12.0,74,-99.99,,,0.00,64.040001,,2013-02-06 22:41:00,
2013-02-06 14:52:00,50.0,42.0,-100.00,SSW,212,7.0,12.0,74,-99.99,,,0.00,64.040001,,2013-02-06 22:52:00,
2013-02-06 15:01:00,50.0,42.0,-100.00,SSW,212,7.0,12.0,74,-99.99,,,0.00,64.040001,,2013-02-06 23:01:00,
2013-02-06 15:11:00,50.0,42.0,-100.00,SSW,212,7.0,12.0,74,-99.99,,,0.00,64.040001,,2013-02-06 23:11:00,
2013-02-06 15:41:00,50.0,42.0,-100.00,SSW,213,7.0,15.0,74,-99.99,,,0.00,129.470001,,2013-02-06 23:41:00,
2013-02-06 15:52:00,50.0,42.0,-100.00,SSW,213,7.0,15.0,74,-99.99,,,0.00,129.470001,,2013-02-06 23:52:00,
2013-02-06 16:01:00,50.0,42.0,-100.00,SSW,213,7.0,15.0,74,-99.99,,,0.00,129.470001,,2013-02-07 00:01:00,
2013-02-06 16:11:00,50.0,42.0,-100.00,SSW,213,7.0,15.0,74,-99.99,,,0.00,129.470001,,2013-02-07 00:11:00,
2013-02-06 16:41:00,50.0,41.0,-100.00,SSW,213,7.0,16.0,71,-99.99,,,0.00,109.480003,,2013-02-07 00:41:00,
2013-02-06 16:52:00,50.0,41.0,-100.00,SSW,213,7.0,16.0,71,-99.99,,,0.00,109.480003,,2013-02-07 00:52:00,
2013-02-06 17:01:00,50.0,41.0,-100.00,SSW,213,7.0,16.0,71,-99.99,,,0.00,109.480003,,2013-02-07 01:01:00,
2013-02-06 17:11:00,50.0,41.0,-100.00,SSW,213,7.0,16.0,71,-99.99,,,0.00,109.480003,,2013-02-07 01:11:00,
2013-02-06 17:41:00,50.0,41.0,-100.00,SSW,209,5.0,10.0,73,-99.99,,,0.00,9.070000,,2013-02-07 01:41:00,
2013-02-06 17:52:00,50.0,41.0,-100.00,SSW,209,5.0,10.0,73,-99.99,,,0.00,9.070000,,2013-02-07 01:52:00,
2013-02-06 18:01:00,50.0,41.0,-100.00,SSW,209,5.0,10.0,73,-99.99,,,0.00,9.070000,,2013-02-07 02:01:00,
2013-02-06 18:11:00,50.0,41.0,-100.00,SSW,209,5.0,10.0,73,-99.99,,,0.00,9.070000,,2013-02-07 02:11:00,
2013-02-06 19:02:00,48.0,42.0,-100.00,SSW,212,7.0,15.0,79,-99.99,,,0.00,0.000000,,2013-02-07 03:02:00,
2013-02-06 19:11:00,48.0,42.0,-100.00,SSW,212,7.0,15.0,79,-99.99,,,0.00,0.000000,,2013-02-07 03:11:00,
2013-02-06 19:41:00,47.0,41.0,-100.00,SSW,194,6.0,11.0,79,-99.99,,,0.00,0.000000,,2013-02-07 03:41:00,
2013-02-06 19:52:00,47.0,41.0,-100.00,SSW,194,6.0,11.0,79,-99.99,,,0.00,0.000000,,2013-02-07 03:52:00,
2013-02-06 20:01:00,47.0,41.0,-100.00,SSW,194,6.0,11.0,79,-99.99,,,0.00,0.000000,,2013-02-07 04:01:00,
2013-02-06 20:11:00,47.0,41.0,-100.00,SSW,194,6.0,11.0,79,-99.99,,,0.00,0.000000,,2013-02-07 04:11:00,
2013-02-06 20:41:00,46.0,42.0,-100.00,South,188,3.0,5.0,83,-99.99,,,0.00,0.000000,,2013-02-07 04:41:00,
2013-02-06 20:53:00,46.0,42.0,-100.00,South,188,3.0,5.0,83,-99.99,,,0.00,0.000000,,2013-02-07 04:53:00,
2013-02-06 21:01:00,46.0,42.0,-100.00,South,188,3.0,5.0,83,-99.99,,,0.00,0.000000,,2013-02-07 05:01:00,
2013-02-06 21:11:00,46.0,42.0,-100.00,South,188,3.0,5.0,83,-99.99,,,0.00,0.000000,,2013-02-07 05:11:00,
2013-02-06 21:32:00,46.0,42.0,-100.00,SSW,195,3.0,6.0,87,-99.99,,,0.00,0.000000,,2013-02-07 05:32:00,
2013-02-06 21:42:00,46.0,42.0,-100.00,SSW,195,3.0,6.0,87,-99.99,,,0.00,0.000000,,2013-02-07 05:42:00,
2013-02-06 21:52:00,46.0,42.0,-100.00,SSW,195,3.0,6.0,87,-99.99,,,0.00,0.000000,,2013-02-07 05:52:00,
2013-02-06 22:02:00,46.0,42.0,-100.00,SSW,195,3.0,6.0,87,-99.99,,,0.00,0.000000,,2013-02-07 06:02:00,
2013-02-06 22:11:00,46.0,42.0,-100.00,SSW,195,3.0,6.0,87,-99.99,,,0.00,0.000000,,2013-02-07 06:11:00,
2013-02-06 22:31:00,46.0,42.0,-100.00,SW,223,4.0,9.0,86,-99.99,,,0.00,0.000000,,2013-02-07 06:31:00,
2013-02-06 22:43:00,46.0,42.0,-100.00,WSW,237,10.0,22.0,83,-99.99,,,0.00,0.000000,,2013-02-07 06:43:00,
2013-02-06 22:52:00,46.0,42.0,-100.00,WSW,237,10.0,22.0,83,-99.99,,,0.00,0.000000,,2013-02-07 06:52:00,
2013-02-06 23:01:00,46.0,42.0,-100.00,WSW,237,10.0,22.0,83,-99.99,,,0.00,0.000000,,2013-02-07 07:01:00,
2013-02-06 23:11:00,46.0,42.0,-100.00,WSW,237,10.0,22.0,83,-99.99,,,0.00,0.000000,,2013-02-07 07:11:00,
2013-02-06 23:32:00,43.0,38.0,-100.00,WSW,249,10.0,23.0,82,-99.99,,,0.00,0.000000,,2013-02-07 07:32:00,
2013-02-06 23:41:00,43.0,38.0,-100.00,WSW,249,10.0,23.0,82,-99.99,,,0.00,0.000000,,2013-02-07 07:41:00,
2013-02-06 23:52:00,43.0,38.0,-100.00,WSW,249,10.0,23.0,82,-99.99,,,0.00,0.000000,,2013-02-07 07:52:00,